• In Hungary
  • List of Countries
  • For 7 days
  • Water Temperature
  • Satellite Maps
  • Weather Map
  • News
  • Weather Widgets
  • user-avatar
    Login

    Hourly Weather Manage

    Today, 23 September, Sunday

    Time Temperature Precipitation Wind Pressure Humidity
    00:00 +11°C° 0.9 mm 3 mps 748 mmHg 91%
    01:00 +11°C° 0.7 mm 3 mps 748 mmHg 92%
    02:00 +12°C° 0.7 mm 3 mps 747 mmHg 93%
    03:00 +13°C° 0.7 mm 2 mps 747 mmHg 94%
    04:00 +13°C° 0.7 mm 2 mps 747 mmHg 94%
    05:00 +12°C° 0.7 mm 3 mps 747 mmHg 95%
    06:00 +12°C° 0.7 mm 3 mps 746 mmHg 95%
    07:00 +13°C° 0.6 mm 2 mps 746 mmHg 95%
    08:00 +13°C° 0.6 mm 2 mps 746 mmHg 94%
    09:00 +13°C° 0.6 mm 2 mps 746 mmHg 94%
    10:00 +12°C° 2.6 mm 4 mps 746 mmHg 94%
    11:00 +12°C° 2.6 mm 5 mps 746 mmHg 94%
    12:00 +11°C° 2.6 mm 7 mps 746 mmHg 94%
    13:00 +10°C° 1.6 mm 6 mps 747 mmHg 92%
    14:00 +10°C° 1.6 mm 5 mps 747 mmHg 90%
    15:00 +9°C° 1.6 mm 5 mps 748 mmHg 88%
    16:00 +10°C° 0.6 mm 4 mps 750 mmHg 90%
    17:00 +10°C° 0.6 mm 4 mps 751 mmHg 91%
    18:00 +9°C° 0.6 mm 3 mps 752 mmHg 92%
    19:00 +9°C° 0.1 mm 3 mps 753 mmHg 92%
    20:00 +9°C° 0.1 mm 3 mps 755 mmHg 92%
    21:00 +9°C° 0.1 mm 3 mps 756 mmHg 92%
    22:00 +8°C° 0 mm 3 mps 757 mmHg 91%
    23:00 +8°C° 0 mm 2 mps 758 mmHg 91%

    Tomorrow, 24 September, Monday

    Time Temperature Precipitation Wind Pressure Humidity
    00:00 +7°C° 0 mm 2 mps 758 mmHg 91%
    01:00 +7°C° 0 mm 2 mps 759 mmHg 90%
    02:00 +7°C° 0 mm 2 mps 760 mmHg 90%
    03:00 +8°C° 0 mm 1 mps 761 mmHg 89%
    04:00 +8°C° 0 mm 1 mps 761 mmHg 88%
    05:00 +8°C° 0 mm 1 mps 762 mmHg 88%
    06:00 +7°C° 0 mm 1 mps 762 mmHg 87%
    07:00 +10°C° 0 mm 1 mps 763 mmHg 80%
    08:00 +12°C° 0 mm 2 mps 763 mmHg 73%
    09:00 +14°C° 0 mm 2 mps 764 mmHg 66%
    10:00 +13°C° 0 mm 3 mps 764 mmHg 63%
    11:00 +14°C° 0 mm 3 mps 764 mmHg 59%
    12:00 +15°C° 0 mm 4 mps 764 mmHg 56%
    13:00 +15°C° 0.1 mm 4 mps 764 mmHg 57%
    14:00 +15°C° 0.1 mm 4 mps 764 mmHg 57%
    15:00 +14°C° 0.1 mm 5 mps 764 mmHg 58%
    16:00 +13°C° 0 mm 4 mps 764 mmHg 64%
    17:00 +11°C° 0 mm 3 mps 764 mmHg 70%
    18:00 +10°C° 0 mm 3 mps 765 mmHg 76%
    19:00 +9°C° 0 mm 2 mps 765 mmHg 78%
    20:00 +8°C° 0 mm 2 mps 765 mmHg 80%
    21:00 +8°C° 0 mm 2 mps 766 mmHg 82%
    22:00 +7°C° 0 mm 2 mps 766 mmHg 83%
    23:00 +7°C° 0 mm 2 mps 766 mmHg 85%

    Day after tomorrow, 25 September, Tuesday

    Time Temperature Precipitation Wind Pressure Humidity
    00:00 +6°C° 0 mm 2 mps 766 mmHg 86%
    01:00 +7°C° 0 mm 1 mps 766 mmHg 87%
    02:00 +7°C° 0 mm 1 mps 766 mmHg 87%
    03:00 +6°C° 0 mm 1 mps 766 mmHg 88%
    04:00 +6°C° 0 mm 1 mps 766 mmHg 88%
    05:00 +6°C° 0 mm 1 mps 766 mmHg 88%
    06:00 +6°C° 0 mm 1 mps 766 mmHg 87%
    07:00 +7°C° 0 mm 2 mps 766 mmHg 79%
    08:00 +9°C° 0 mm 2 mps 766 mmHg 71%
    09:00 +11°C° 0 mm 3 mps 767 mmHg 62%
    10:00 +13°C° 0 mm 3 mps 766 mmHg 58%
    11:00 +14°C° 0 mm 3 mps 766 mmHg 53%
    12:00 +16°C° 0 mm 3 mps 766 mmHg 48%
    13:00 +16°C° 0 mm 3 mps 765 mmHg 49%
    14:00 +16°C° 0 mm 3 mps 765 mmHg 49%
    15:00 +16°C° 0 mm 3 mps 764 mmHg 49%
    16:00 +13°C° 0 mm 3 mps 764 mmHg 54%
    17:00 +12°C° 0 mm 3 mps 764 mmHg 60%
    18:00 +10°C° 0 mm 2 mps 764 mmHg 66%
    19:00 +9°C° 0 mm 2 mps 764 mmHg 67%
    20:00 +9°C° 0 mm 2 mps 764 mmHg 68%
    21:00 +8°C° 0 mm 2 mps 764 mmHg 69%
    22:00 +8°C° 0 mm 2 mps 764 mmHg 69%
    23:00 +7°C° 0 mm 2 mps 764 mmHg 68%

    26 September, Wednesday

    Time Temperature Precipitation Wind Pressure Humidity
    00:00 +7°C° 0 mm 2 mps 763 mmHg 68%
    01:00 +6°C° 0 mm 2 mps 763 mmHg 68%
    02:00 +6°C° 0 mm 2 mps 763 mmHg 67%
    03:00 +6°C° 0 mm 2 mps 762 mmHg 66%
    04:00 +5°C° 0 mm 2 mps 762 mmHg 66%
    05:00 +6°C° 0 mm 1 mps 762 mmHg 65%
    06:00 +6°C° 0 mm 1 mps 762 mmHg 64%
    07:00 +8°C° 0 mm 1 mps 762 mmHg 59%
    08:00 +11°C° 0 mm 1 mps 762 mmHg 53%
    09:00 +13°C° 0 mm 1 mps 762 mmHg 47%
    10:00 +15°C° 0 mm 1 mps 762 mmHg 43%
    11:00 +16°C° 0 mm 1 mps 762 mmHg 40%
    12:00 +19°C° 0 mm 1 mps 762 mmHg 37%
    13:00 +17°C° 0 mm 0 mps 762 mmHg 37%
    14:00 +18°C° 0 mm 0 mps 761 mmHg 36%
    15:00 +18°C° 0 mm 0 mps 761 mmHg 36%
    16:00 +16°C° 0 mm 0 mps 761 mmHg 42%
    17:00 +14°C° 0 mm 0 mps 761 mmHg 47%
    18:00 +12°C° 0 mm 0 mps 761 mmHg 53%
    19:00 +11°C° 0 mm 0 mps 761 mmHg 54%
    20:00 +12°C° 0 mm 1 mps 761 mmHg 56%
    21:00 +11°C° 0 mm 1 mps 761 mmHg 57%
    22:00 +11°C° 0 mm 1 mps 761 mmHg 59%
    23:00 +10°C° 0 mm 1 mps 761 mmHg 60%

    27 September, Thursday

    Time Temperature Precipitation Wind Pressure Humidity
    00:00 +10°C° 0 mm 1 mps 761 mmHg 61%
    01:00 +10°C° 0 mm 1 mps 761 mmHg 62%
    02:00 +9°C° 0 mm 1 mps 761 mmHg 63%
    03:00 +9°C° 0 mm 1 mps 761 mmHg 64%
    04:00 +9°C° 0 mm 1 mps 760 mmHg 64%
    05:00 +9°C° 0 mm 1 mps 760 mmHg 64%
    06:00 +9°C° 0 mm 1 mps 760 mmHg 65%
    07:00 +10°C° 0 mm 2 mps 760 mmHg 60%
    08:00 +14°C° 0 mm 2 mps 760 mmHg 55%
    09:00 +16°C° 0 mm 2 mps 760 mmHg 51%
    10:00 +18°C° 0 mm 2 mps 760 mmHg 48%
    11:00 +19°C° 0 mm 2 mps 759 mmHg 46%
    12:00 +21°C° 0 mm 2 mps 759 mmHg 43%
    13:00 +21°C° 0 mm 2 mps 758 mmHg 45%
    14:00 +23°C° 0 mm 2 mps 758 mmHg 47%
    15:00 +23°C° 0 mm 1 mps 757 mmHg 49%
    16:00 +21°C° 0 mm 1 mps 757 mmHg 56%
    17:00 +19°C° 0 mm 1 mps 757 mmHg 63%
    18:00 +16°C° 0 mm 1 mps 756 mmHg 70%
    19:00 +16°C° 0 mm 1 mps 756 mmHg 72%
    20:00 +16°C° 0 mm 1 mps 756 mmHg 74%
    21:00 +15°C° 0 mm 2 mps 756 mmHg 75%
    22:00 +15°C° 0 mm 2 mps 756 mmHg 76%
    23:00 +15°C° 0 mm 2 mps 755 mmHg 76%

    28 September, Friday

    Time Temperature Precipitation Wind Pressure Humidity
    00:00 +15°C° 0 mm 2 mps 755 mmHg 76%
    01:00 +14°C° 0 mm 2 mps 754 mmHg 77%
    02:00 +14°C° 0 mm 2 mps 754 mmHg 77%
    03:00 +14°C° 0 mm 2 mps 753 mmHg 78%
    04:00 +14°C° 0 mm 2 mps 753 mmHg 80%
    05:00 +14°C° 0 mm 2 mps 753 mmHg 82%
    06:00 +13°C° 0 mm 2 mps 753 mmHg 85%
    07:00 +15°C° 0 mm 2 mps 752 mmHg 79%
    08:00 +17°C° 0 mm 2 mps 752 mmHg 73%
    09:00 +19°C° 0 mm 2 mps 752 mmHg 68%
    10:00 +21°C° 0 mm 2 mps 752 mmHg 63%
    11:00 +23°C° 0 mm 2 mps 751 mmHg 59%
    12:00 +24°C° 0 mm 2 mps 751 mmHg 54%
    13:00 +25°C° 0 mm 2 mps 750 mmHg 54%
    14:00 +25°C° 0 mm 3 mps 750 mmHg 55%
    15:00 +25°C° 0 mm 3 mps 749 mmHg 55%
    16:00 +22°C° 0 mm 3 mps 749 mmHg 63%
    17:00 +20°C° 0 mm 2 mps 749 mmHg 70%
    18:00 +18°C° 0 mm 2 mps 749 mmHg 78%
    19:00 +17°C° 0.3 mm 2 mps 749 mmHg 83%
    20:00 +16°C° 0.3 mm 3 mps 749 mmHg 87%
    21:00 +14°C° 0.3 mm 3 mps 749 mmHg 92%
    22:00 +14°C° 0.5 mm 3 mps 748 mmHg 92%
    23:00 +13°C° 0.5 mm 3 mps 748 mmHg 92%
    Show more